Wind_Speed
7 7 8 12 17 21 23 23 24 25 24 23 20 18 18 18 17 18 18 15 13 11 10 10 9 7 5 4 3 3 4 4 5 6 6 7 6 6 5 5 5 5 6 6 7 7 7 6 5 5 5 5 5 5 5 5 5 5 5 6 6 6 6 7 8 9 10 10 10 10 11 11 12 12 13 14 14 14 14 15 15 15 16 16 16
5 5 7 9 13 16 19 22 24 25 25 25 23 21 21 22 21 21 21 19 16 15 14 14 13 10 9 8 7 7 8 8 8 8 8 8 8 8 8 8 8 8 8 9 9 10 10 10 9 8 8 8 8 8 8 8 7 7 7 7 8 8 9 9 10 11 12 12 12 12 12 13 13 13 14 15 15 16 17 17 18 18 18 18 18
5 5 7 8 10 12 16 19 22 24 26 26 24 23 24 24 24 24 23 20 19 18 18 18 16 14 14 12 10 10 11 12 12 12 11 10 9 10 11 11 11 11 11 11 12 13 13 13 13 12 12 12 12 12 12 11 11 10 10 10 10 10 11 12 13 14 15 16 15 15 15 15 16 16 16 17 17 18 19 20 21 21 22 22 23
6 6 6 7 9 11 14 17 20 23 26 27 26 26 25 25 25 26 24 22 22 23 22 21 20 18 16 13 12 12 13 14 15 14 14 14 13 13 14 13 13 13 14 14 14 15 16 16 16 15 15 15 15 15 15 15 14 13 13 13 14 14 14 14 15 16 18 19 19 19 19 19 19 19 20 20 21 21 22 22 23 24 25 26 26
7 7 7 8 9 11 13 15 18 22 26 28 28 28 27 26 26 27 27 25 26 26 25 25 23 20 17 16 15 15 17 17 16 15 15 18 19 18 17 16 16 16 16 17 17 17 18 18 18 18 17 17 17 17 18 17 17 17 16 17 17 17 17 18 18 18 18 19 20 21 22 23 23 23 23 24 24 25 25 26 26 27 27 28 29
8 9 9 10 11 11 12 12 15 21 26 28 30 29 27 26 27 28 29 29 29 29 28 28 26 22 20 20 19 19 19 17 16 15 16 18 20 20 19 19 19 20 20 20 19 19 19 19 19 19 19 19 19 19 20 20 20 20 20 20 20 20 20 21 21 21 21 21 21 22 22 23 25 26 27 27 28 28 28 29 30 30 30 30 31
11 11 12 12 13 14 13 12 13 18 24 28 28 26 25 25 27 29 31 32 33 31 29 29 27 22 20 21 20 19 17 15 14 15 16 17 17 18 18 18 19 20 21 22 23 23 21 21 21 21 21 22 22 21 22 23 23 24 24 24 24 24 24 24 24 24 24 24 25 25 25 26 27 28 29 30 31 32 32 32 32 32 33 33 33
12 13 14 14 15 16 16 15 15 16 22 26 25 23 24 25 27 29 30 32 33 30 25 25 24 21 19 20 19 18 16 15 14 14 16 17 16 16 17 16 17 18 18 19 22 25 25 25 24 24 24 24 24 24 24 25 26 27 27 28 28 28 28 28 28 28 27 27 27 27 28 29 30 31 32 33 34 35 35 35 35 35 35 35 35
12 13 15 15 15 16 17 17 17 18 21 23 22 22 23 23 24 26 27 27 27 25 23 21 20 19 19 17 16 16 15 14 14 15 16 17 17 17 17 16 17 18 18 17 19 21 25 27 27 26 26 26 27 27 28 28 29 30 31 31 31 31 31 31 31 32 31 30 29 30 31 32 33 35 36 37 37 38 39 39 39 39 39 38 37
11 13 14 15 15 16 16 17 18 20 21 20 20 20 20 20 20 20 19 18 18 18 17 16 16 16 15 13 12 12 13 13 14 15 17 18 18 18 17 17 18 19 19 19 19 20 22 26 28 29 29 29 30 31 32 32 33 33 34 34 34 34 34 34 34 34 34 34 33 33 33 34 35 37 38 40 41 41 42 42 42 41 41 39 37
11 12 13 14 14 15 16 17 18 20 21 20 19 19 19 18 17 15 14 13 13 13 13 14 14 14 12 12 12 13 14 15 16 18 19 19 19 19 19 19 21 21 22 22 22 22 22 23 26 28 30 31 32 32 33 34 35 35 36 37 37 37 36 36 36 37 38 38 37 36 35 34 34 36 37 38 40 41 42 43 43 42 41 41 39
12 13 14 14 15 15 16 17 18 19 20 20 20 19 19 17 16 15 15 15 15 15 16 16 16 15 15 15 16 17 18 19 20 21 22 22 22 22 22 23 24 25 25 25 26 26 26 26 27 28 29 31 32 32 32 33 35 36 38 39 39 38 37 37 37 37 40 42 42 41 38 35 34 36 37 37 37 38 40 41 42 43 43 43 43
13 14 15 15 15 16 17 18 19 20 20 20 20 20 19 19 19 19 19 20 20 19 19 19 19 19 19 19 20 21 22 23 24 24 24 25 25 25 26 26 27 28 28 29 29 29 29 29 30 30 31 31 32 33 33 34 36 37 38 39 39 39 38 39 39 39 42 45 46 45 42 38 37 38 39 38 38 38 39 40 41 42 43 44 44
16 17 17 18 18 18 19 20 21 22 23 23 23 22 22 22 22 23 23 23 23 22 22 21 21 21 22 22 23 24 25 25 26 26 26 26 27 27 27 28 29 29 30 31 31 31 31 32 32 32 33 33 34 35 35 36 37 38 38 39 39 40 40 40 40 41 43 45 46 47 47 44 41 40 40 40 40 41 41 41 42 43 44 44 45
18 19 20 20 20 21 22 22 23 23 23 24 24 23 23 23 23 23 23 23 23 23 23 23 23 23 23 24 24 25 25 25 26 26 26 27 27 28 28 29 29 30 30 31 31 31 32 32 33 33 33 33 34 34 35 36 36 37 38 38 39 40 40 40 40 41 43 45 46 47 46 44 43 43 43 42 42 42 43 43 43 44 45 45 45
20 21 23 23 23 24 24 23 23 23 23 23 23 23 23 23 23 22 23 23 23 24 24 24 25 25 25 25 25 25 25 25 25 26 26 26 27 28 28 29 29 30 30 30 31 31 31 31 32 32 33 33 33 34 34 35 36 36 37 37 37 38 39 39 41 43 44 45 46 46 44 43 43 44 44 44 44 44 44 45 45 46 47 47 46
25 25 25 25 25 25 24 23 22 23 23 23 23 23 23 23 23 24 24 25 25 25 26 26 26 26 26 25 25 25 25 26 26 26 27 27 27 28 28 29 29 29 30 30 30 31 31 31 31 32 32 32 33 34 35 35 36 37 38 38 39 39 40 41 42 44 44 44 44 44 44 44 44 44 44 45 46 46 46 47 47 48 48 49 48
26 23 22 23 23 23 22 22 22 22 23 24 24 24 24 24 25 26 27 27 28 28 27 27 27 27 27 26 26 26 26 27 27 28 28 29 29 29 29 30 30 30 30 31 31 32 32 32 32 32 32 32 32 33 34 34 35 36 38 38 39 39 40 41 43 43 43 43 44 44 44 44 45 45 46 47 47 48 48 48 48 49 49 49 50
25 24 23 23 22 21 21 22 23 23 24 25 24 24 24 25 26 28 29 29 29 29 28 28 28 27 27 27 27 27 27 28 29 29 30 31 31 31 32 32 32 32 32 33 33 34 34 34 35 35 34 34 34 35 35 35 36 36 37 38 39 40 41 43 44 44 44 44 44 45 45 46 46 47 48 48 48 48 49 49 49 49 49 49 50
24 25 26 25 23 22 23 24 25 25 25 24 24 24 24 25 27 29 30 31 31 30 30 30 29 29 29 28 29 29 29 29 29 30 30 30 30 31 31 32 33 33 34 34 35 35 35 36 36 37 37 37 37 37 38 38 38 39 40 40 41 42 43 45 46 46 46 46 46 46 46 47 48 48 48 48 48 48 48 48 48 48 48 49 49
25 26 26 26 24 24 25 26 28 27 25 23 22 22 21 22 24 27 30 33 33 33 33 32 32 32 32 32 32 32 32 31 31 30 30 31 31 32 32 33 33 34 35 35 35 36 36 36 36 37 37 38 38 39 40 40 41 42 43 43 44 45 46 47 48 48 47 47 47 47 48 48 48 48 48 48 48 47 47 47 47 47 48 49 49
26 27 28 27 27 26 26 27 28 27 24 22 21 20 20 22 25 27 29 32 33 33 34 34 33 33 33 33 34 34 34 34 33 33 33 34 34 35 35 35 35 36 36 36 36 36 36 36 36 37 37 38 39 40 40 41 42 43 44 45 45 46 47 47 48 48 48 48 48 48 48 47 47 47 47 47 47 47 46 46 47 48 49 49 50
27 27 28 29 28 28 28 27 27 27 25 23 22 22 23 25 28 30 31 31 32 33 33 33 34 34 34 34 35 35 35 35 35 35 35 35 36 36 36 36 36 36 36 36 36 36 36 36 36 37 38 39 40 40 41 41 42 43 44 45 46 46 46 47 47 47 48 48 48 47 46 46 46 46 46 46 46 47 47 47 48 49 49 49 50
30 29 29 29 29 29 29 29 29 28 27 26 26 26 26 27 29 31 32 33 33 33 33 34 35 35 36 37 37 37 37 36 36 36 35 35 36 36 36 36 36 36 35 35 35 35 35 35 36 36 36 37 39 40 40 41 41 42 43 43 44 44 45 45 46 46 46 45 45 44 44 44 45 46 46 47 47 48 48 48 49 49 49 50 50
32 32 31 31 31 31 31 32 32 31 31 31 31 31 31 31 31 32 33 33 33 33 34 35 36 36 37 38 38 38 38 37 36 36 35 35 35 35 35 34 34 33 33 32 33 34 34 34 34 34 35 35 36 37 37 38 38 39 39 40 40 41 41 41 42 42 42 42 42 42 43 43 45 46 46 47 48 48 49 49 50 50 50 51 51
35 35 34 33 33 33 34 34 34 35 35 35 36 36 36 35 34 35 35 35 34 35 35 35 36 37 37 38 39 39 38 37 36 35 35 34 34 33 32 31 31 31 30 30 31 31 31 32 32 33 34 34 35 35 35 34 34 34 34 35 35 35 36 36 37 37 38 39 40 41 42 43 44 45 46 47 48 49 50 51 51 51 51 51 52
38 37 37 37 37 36 36 36 36 37 37 37 38 38 37 37 37 37 37 37 37 37 36 36 36 37 37 38 39 39 38 37 35 33 31 30 30 30 29 29 29 29 28 29 30 30 31 31 32 33 34 34 33 32 31 30 30 30 30 30 30 31 32 33 34 35 37 38 40 41 42 43 44 45 46 48 49 49 50 51 52 51 50 49 49
39 38 37 37 38 38 38 38 38 37 37 38 39 39 39 38 38 38 39 39 40 39 38 38 37 36 36 36 36 36 35 33 30 29 28 27 28 28 29 29 28 29 29 30 30 30 31 31 31 32 33 31 29 27 26 25 25 25 25 26 27 28 30 31 33 35 36 38 39 41 42 43 45 46 47 48 48 48 48 48 48 47 45 44 43
39 37 35 35 35 36 37 38 38 37 38 39 39 39 40 40 39 40 40 41 41 41 40 40 39 38 37 35 34 32 30 28 27 27 27 28 28 29 30 30 29 29 29 29 28 28 28 29 29 28 26 24 22 21 20 20 21 22 23 24 25 27 29 31 32 34 36 37 39 41 43 44 45 46 46 45 44 43 42 42 41 41 39 38 37
39 37 35 34 34 35 36 37 37 38 38 39 39 39 40 40 40 41 41 41 42 42 43 43 42 40 38 36 33 30 28 26 28 29 29 29 29 30 31 31 30 29 28 25 24 25 26 25 23 20 19 18 17 18 18 19 20 21 22 24 25 27 28 30 32 34 36 38 40 41 42 43 42 41 40 39 38 36 35 35 35 34 33 33 32
37 37 36 35 35 36 36 37 38 39 39 40 40 40 40 40 41 41 41 42 43 44 44 44 43 41 38 35 33 31 29 29 30 31 30 29 30 30 31 30 30 29 26 23 22 23 23 20 18 17 17 17 17 18 18 19 20 20 22 23 25 26 28 30 33 35 36 37 38 38 37 37 36 35 34 34 32 30 29 29 29 28 27 27 26
36 36 37 37 37 38 38 39 39 40 40 40 40 40 41 41 41 41 42 43 43 43 42 42 41 39 36 33 32 32 31 32 33 32 31 29 28 28 28 29 28 27 24 21 21 21 20 18 18 18 18 18 18 18 18 19 19 19 20 22 24 27 29 31 32 34 34 35 34 33 31 31 30 30 29 28 27 25 23 22 22 21 21 20 20
36 36 37 38 39 40 41 41 42 42 42 42 42 42 42 42 42 41 41 41 40 38 37 36 35 35 34 33 33 33 33 34 34 33 32 30 27 25 26 26 25 23 21 20 20 19 19 19 19 19 19 19 18 18 17 17 18 19 20 22 24 26 28 29 31 31 31 31 30 28 26 25 25 25 24 23 21 20 18 17 17 18 18 18 18
34 35 36 37 39 40 41 42 43 43 43 43 43 42 41 40 40 39 39 38 36 34 32 32 33 33 33 34 34 34 35 34 34 33 32 30 27 25 24 23 22 20 19 19 19 20 20 20 19 18 18 17 16 15 16 16 17 19 20 22 23 24 25 26 27 28 28 27 26 24 23 22 22 22 21 19 18 17 16 17 18 20 20 20 20
32 33 34 35 36 38 39 40 41 42 43 42 41 40 38 38 39 39 38 36 34 32 32 32 32 33 34 35 34 34 34 33 32 31 30 29 27 25 23 22 21 19 18 19 20 20 20 18 17 17 15 14 14 14 15 15 17 18 19 20 21 22 23 24 24 25 25 25 24 23 23 21 21 20 19 18 18 18 19 20 21 23 23 24 24
28 29 30 31 32 34 35 37 38 40 40 40 40 39 38 38 38 37 36 34 33 32 32 32 33 33 34 34 33 33 32 30 28 26 25 25 25 25 24 23 21 19 20 20 20 18 17 16 15 14 12 12 12 13 13 14 16 17 18 18 19 20 21 22 23 24 24 23 23 23 23 22 21 21 20 19 19 20 22 23 24 25 27 28 29
26 27 27 27 28 29 30 32 33 34 34 35 35 36 36 36 35 34 33 32 32 31 31 31 31 32 32 31 30 29 27 25 22 21 21 23 24 25 23 22 20 20 20 19 17 15 14 12 11 10 10 10 11 11 12 13 14 15 16 17 18 19 20 22 24 24 24 22 22 22 22 21 21 21 21 20 20 21 23 25 26 27 27 28 28
23 23 24 24 25 27 28 28 29 30 30 31 32 33 33 33 31 31 31 30 30 30 29 28 28 27 25 23 22 20 18 18 19 21 22 22 21 19 18 18 18 19 18 15 13 12 10 8 8 9 9 8 8 9 10 11 12 13 15 16 17 19 20 22 24 24 23 21 21 21 21 20 20 21 21 22 22 23 24 25 25 24 22 21 21
20 20 22 23 25 26 27 28 28 28 28 28 29 30 29 29 28 29 28 26 25 24 21 19 17 15 13 14 14 13 13 14 16 17 17 17 16 15 16 16 16 16 14 11 9 7 6 6 7 7 7 6 7 8 9 10 11 13 14 16 17 18 20 21 22 22 22 21 20 20 20 20 20 20 21 23 24 24 25 24 22 20 18 16 15
16 18 20 22 24 24 25 26 26 26 26 27 27 27 27 25 24 22 20 17 16 15 14 14 13 13 14 14 14 14 14 16 17 15 16 17 16 16 15 15 13 12 10 7 5 4 5 6 6 5 4 4 5 7 8 9 11 12 15 17 18 19 19 20 21 22 22 22 21 20 20 20 19 19 20 21 22 24 25 23 20 18 16 14 14
14 15 16 16 16 16 16 17 18 18 19 19 19 19 19 18 17 16 16 15 15 15 13 14 16 18 18 17 17 16 16 18 18 17 17 17 16 15 14 12 10 8 6 4 4 5 6 6 4 2 2 3 5 6 7 9 11 13 16 18 19 19 19 19 20 21 22 22 22 21 20 20 19 19 18 18 20 22 23 22 19 16 15 14 14
9 8 7 7 7 7 7 7 7 6 8 9 11 12 13 14 16 17 17 18 17 16 15 18 21 22 20 19 18 17 16 16 16 16 16 15 14 14 12 10 8 6 5 5 6 7 6 4 2 0 2 3 5 6 8 9 12 14 17 18 19 19 19 19 19 20 21 22 22 22 21 20 20 19 18 17 18 20 21 20 17 15 14 14 14
2 4 5 6 6 6 6 5 6 8 12 15 16 17 17 17 18 18 19 20 20 19 19 20 20 19 18 16 15 14 13 13 13 13 14 14 14 13 11 9 7 6 6 7 7 6 4 2 1 2 2 4 5 6 8 10 12 15 17 18 19 19 19 19 19 19 20 22 22 22 21 20 20 19 18 17 17 18 20 20 18 15 14 13 14
9 7 5 5 7 8 9 12 15 17 19 20 21 22 23 23 22 21 20 20 19 18 18 18 18 17 16 14 12 11 11 12 12 13 14 14 13 11 9 8 8 8 8 8 7 5 3 2 2 2 3 5 6 8 9 11 13 15 16 18 18 19 19 20 20 20 20 22 23 23 22 21 20 19 18 17 17 17 18 19 18 16 13 12 13
7 4 3 5 6 6 8 13 16 17 17 17 17 18 19 20 19 18 17 16 16 16 16 16 17 17 16 14 13 12 12 12 13 13 13 13 11 9 9 9 9 9 8 7 5 3 2 1 2 3 4 6 8 9 11 13 15 16 17 18 19 20 20 21 21 22 22 23 24 24 24 22 21 20 19 18 17 17 18 18 18 16 14 13 14
3 1 2 5 6 8 11 13 14 14 14 14 13 12 13 14 14 13 12 13 14 15 15 15 15 15 14 13 13 13 13 12 12 12 12 11 10 9 9 9 9 8 7 5 4 2 1 1 2 4 6 7 9 10 12 14 15 17 18 19 20 21 21 22 22 23 24 24 25 25 25 24 23 21 20 19 18 17 17 18 18 17 16 14 13
2 3 5 7 9 11 12 13 13 13 13 13 12 11 10 9 9 9 9 11 13 14 15 14 14 14 13 12 12 12 12 12 12 11 11 10 10 9 9 8 7 6 4 3 2 2 2 2 3 5 6 8 9 11 12 14 15 17 18 19 20 21 22 22 23 24 24 25 25 26 26 26 25 23 22 21 19 18 17 17 17 17 17 16 13
4 7 10 12 12 12 12 12 12 12 12 11 11 11 9 8 8 8 8 9 10 11 12 12 12 12 12 11 11 11 11 11 11 11 10 10 9 9 8 6 5 4 3 2 1 2 3 4 4 6 7 8 9 11 12 14 15 16 17 19 20 21 22 23 23 24 25 25 26 26 26 26 26 25 23 22 21 19 18 17 16 16 16 16 12
9 10 11 11 11 11 10 9 8 9 9 9 9 9 9 8 8 8 8 8 8 8 9 9 10 10 10 10 10 10 10 10 11 10 10 9 8 7 6 5 4 3 2 1 2 3 4 5 5 6 7 8 9 10 11 13 14 15 16 17 19 20 22 23 24 24 24 25 26 26 25 26 26 26 25 24 22 20 19 18 17 16 15 14 12
9 9 9 10 9 9 8 8 7 7 7 7 7 7 8 8 8 8 8 8 7 7 7 8 8 9 9 10 10 10 10 10 10 9 9 8 7 6 5 4 3 2 1 2 2 3 4 5 6 7 8 8 9 10 11 12 13 14 15 16 17 19 20 22 23 24 24 24 25 25 25 25 25 25 25 24 23 21 19 19 17 16 15 14 11
6 6 6 7 7 7 8 8 7 6 5 5 5 5 6 7 6 6 7 7 7 7 7 7 8 8 9 9 9 9 9 9 9 8 8 7 5 5 4 3 2 1 1 2 3 4 5 6 7 8 8 9 9 10 10 11 12 13 14 15 17 18 19 21 22 23 24 24 24 25 25 25 25 25 25 24 23 21 19 19 18 16 14 14 13
Wind_Direction
220 236 244 241 236 237 240 239 241 246 246 243 239 234 234 234 228 227 229 226 225 229 232 233 231 225 220 221 237 266 277 284 292 293 293 293 291 290 291 293 298 305 311 316 316 315 313 313 315 315 316 318 319 320 320 318 315 311 306 301 294 289 286 283 283 284 285 284 284 286 287 288 290 290 292 293 294 293 293 293 292 292 290 288 285
223 242 248 245 239 236 236 236 238 242 242 242 241 236 234 233 230 232 236 232 227 228 231 234 234 230 222 216 223 244 250 250 253 257 260 267 276 283 283 279 276 273 274 280 285 289 291 293 293 292 291 292 292 293 292 292 294 293 293 294 294 294 292 291 288 287 287 285 285 285 285 286 286 287 289 291 294 295 295 295 295 294 293 292 290
226 243 240 236 237 235 234 233 232 234 237 240 240 237 236 236 233 233 238 238 234 232 236 239 238 234 230 227 233 246 254 260 263 261 255 251 259 269 273 274 274 272 270 269 270 273 277 280 281 281 281 284 287 288 287 284 282 279 277 276 277 281 285 288 289 290 289 288 287 287 287 287 286 287 288 289 290 290 291 292 293 294 295 295 295
220 229 233 239 243 238 238 237 231 230 234 238 240 240 240 242 240 238 239 239 234 230 233 239 241 239 237 238 246 256 264 269 269 269 267 263 259 258 261 265 267 267 270 271 269 268 269 270 271 272 274 276 279 283 285 284 282 278 275 271 270 272 276 280 283 285 286 287 288 289 290 290 289 288 288 288 289 289 289 290 291 292 293 294 295
218 221 232 243 247 240 238 239 232 229 234 239 242 244 246 248 248 247 245 242 239 235 234 238 240 238 236 239 249 263 272 272 269 273 279 276 268 260 257 260 263 264 265 266 268 268 267 266 266 267 270 272 274 277 279 281 282 281 279 276 273 272 273 275 276 277 278 280 282 284 286 287 289 289 288 287 287 287 288 289 289 289 289 290 291
225 228 233 236 239 239 238 235 229 227 233 239 243 247 251 252 251 251 252 252 252 251 252 254 252 245 242 248 254 263 272 278 281 285 286 282 275 267 260 258 261 263 262 261 262 264 265 266 265 266 268 270 273 276 278 279 281 282 283 282 281 279 278 276 276 276 276 275 276 277 278 280 282 284 285 285 284 283 284 285 286 286 287 288 289
233 233 234 234 236 237 237 234 228 227 232 236 240 246 251 253 253 255 257 258 259 261 264 265 262 258 260 266 267 266 266 272 281 282 279 277 275 268 261 258 261 265 266 264 260 259 260 260 262 264 266 269 273 276 278 280 280 280 280 281 283 283 281 279 277 276 276 277 277 277 277 277 278 279 280 281 281 281 281 281 282 283 286 287 288
238 236 236 236 238 238 239 240 237 236 237 235 237 244 250 253 256 259 260 261 263 264 264 263 262 264 270 272 272 269 264 263 266 267 267 267 265 262 259 259 263 268 273 273 267 261 258 258 260 262 265 268 271 273 276 278 279 280 280 281 282 283 283 281 279 277 276 276 277 278 279 278 278 278 279 279 281 282 282 283 283 283 284 286 288
239 238 238 238 241 243 246 247 242 242 244 241 240 245 250 254 259 262 263 262 259 257 256 257 262 265 265 265 264 263 260 256 256 259 261 261 260 260 259 259 262 267 273 280 280 271 262 258 259 261 264 267 269 272 274 276 279 281 282 283 283 282 281 280 279 278 276 276 277 278 279 280 281 281 281 281 282 283 283 284 284 285 285 286 288
239 242 243 244 245 244 247 248 244 244 248 248 246 246 249 253 256 257 258 255 250 246 248 252 256 256 255 254 253 253 252 251 252 256 259 260 260 260 260 261 263 266 270 275 280 279 271 264 261 261 264 266 269 272 275 277 279 281 283 284 285 285 283 282 282 281 280 280 280 280 281 282 283 284 284 284 284 284 284 284 285 286 286 286 287
237 243 245 247 247 245 245 248 248 249 251 250 250 250 249 248 246 243 240 240 240 239 238 238 240 244 246 246 244 244 245 247 250 253 256 258 259 260 261 263 264 267 270 271 273 274 273 270 266 265 265 268 270 273 275 277 278 280 282 284 285 286 286 288 289 289 287 284 282 281 283 285 286 288 288 288 287 286 286 287 287 288 288 288 288
234 238 242 246 248 247 246 246 247 248 250 249 250 250 247 239 235 236 239 241 241 241 239 239 242 245 247 247 247 247 249 251 252 255 258 260 261 262 262 262 264 265 267 269 270 270 270 269 268 268 269 270 272 274 276 277 278 279 281 282 283 284 286 289 291 292 291 288 286 285 287 289 291 292 293 291 290 289 288 288 289 290 291 291 291
236 239 241 244 247 247 246 244 242 241 242 242 243 244 242 238 238 242 245 247 248 248 247 246 247 247 249 250 250 252 254 256 257 258 261 263 264 265 265 266 267 267 268 268 269 269 269 269 268 269 270 272 273 274 275 276 278 279 281 281 282 283 285 286 287 287 288 288 289 290 291 293 295 294 294 293 292 291 291 290 290 290 290 291 291
235 237 239 241 244 247 247 245 242 240 239 239 241 242 243 244 246 247 248 250 251 253 253 253 253 253 253 255 255 256 258 259 261 263 265 267 268 269 270 269 270 270 270 270 270 270 270 270 270 270 271 272 273 274 274 275 277 279 281 282 283 283 284 285 285 285 285 287 288 290 292 296 297 295 295 294 293 293 292 291 291 290 289 289 289
236 236 238 240 244 247 248 248 247 245 244 244 245 247 248 250 251 252 252 253 254 256 258 259 260 260 261 261 261 262 262 263 264 265 267 268 270 271 271 272 272 272 272 272 272 272 272 272 272 272 273 273 273 274 274 275 276 278 279 280 282 283 283 284 284 284 284 285 286 288 292 295 296 295 295 295 294 294 293 293 292 291 290 289 289
234 235 238 240 244 247 249 248 247 246 245 246 247 249 251 252 253 254 255 257 258 260 261 262 263 264 265 265 266 266 267 267 266 266 266 267 268 270 271 272 272 273 273 274 273 273 273 273 272 272 273 273 274 275 276 277 277 278 279 280 281 281 281 282 283 284 284 285 286 289 292 294 294 293 294 294 294 294 293 293 293 292 292 291 291
236 233 236 237 238 241 243 244 245 244 245 246 247 249 251 252 254 257 258 260 261 262 263 263 265 265 266 267 268 269 270 270 270 270 270 270 270 271 271 272 272 273 274 274 275 275 275 275 274 274 274 274 275 275 275 276 277 278 278 279 280 280 280 281 282 283 285 286 288 290 292 292 292 292 293 293 293 293 293 292 293 293 292 292 292
254 246 244 240 239 240 240 239 242 243 244 245 246 249 251 254 257 259 260 261 261 261 261 261 262 264 265 267 268 269 270 271 272 273 273 274 274 273 273 274 274 274 274 274 274 274 275 275 276 277 277 277 277 277 277 277 277 277 278 279 279 279 279 279 281 283 286 287 289 290 290 289 290 291 292 292 293 293 293 293 293 293 292 292 292
271 268 266 263 262 260 250 240 237 240 243 244 245 249 253 256 258 260 261 261 261 260 260 260 261 262 263 264 265 267 268 270 271 272 273 274 274 274 275 275 275 275 275 274 274 274 274 275 276 276 277 278 279 280 280 280 280 280 280 279 279 279 280 281 284 286 288 289 290 290 290 290 291 292 293 294 295 295 295 295 294 294 294 294 294
273 272 272 272 271 267 255 243 238 236 237 239 243 248 252 254 256 258 260 260 259 258 258 259 260 260 261 261 263 264 266 268 269 271 273 274 275 276 277 277 277 277 276 276 275 275 275 275 276 276 277 277 277 278 278 278 279 279 279 280 280 281 282 284 285 287 289 290 290 290 291 291 292 293 294 294 294 295 295 294 294 294 294 293 293
273 272 272 272 270 267 262 256 249 244 241 244 249 253 257 259 259 260 260 259 258 257 258 258 258 259 259 260 261 262 264 267 269 271 274 276 277 278 279 279 279 278 278 277 277 277 277 277 277 276 276 275 275 275 275 275 276 277 277 278 279 280 281 282 284 286 287 288 289 289 290 291 292 292 292 293 293 294 294 293 293 293 293 293 292
273 272 271 272 271 270 267 262 257 253 253 256 259 262 266 269 268 266 263 261 260 259 259 259 260 261 262 263 264 265 267 268 270 273 274 276 277 277 278 278 278 278 278 277 277 277 277 277 277 276 275 275 274 274 274 275 275 275 276 277 278 279 281 282 284 286 287 288 289 290 290 290 291 291 292 293 293 293 293 293 293 292 292 291 291
270 269 269 269 270 269 266 262 259 258 259 259 261 265 269 270 269 267 265 264 263 262 262 263 264 265 266 268 269 270 271 272 273 274 274 275 275 275 276 277 277 277 277 277 278 278 277 276 276 275 275 275 275 275 275 275 276 277 278 279 280 282 283 284 286 287 288 289 289 289 290 290 291 292 293 293 293 292 292 292 291 290 290 289 289
270 269 268 266 266 265 264 262 261 261 260 258 259 264 268 269 267 266 264 263 263 264 265 266 267 268 268 269 269 270 271 271 272 273 274 275 275 275 276 276 276 276 276 277 277 277 277 277 277 277 277 277 276 276 276 276 276 278 279 281 282 283 284 285 286 287 287 288 288 289 291 292 292 292 292 292 291 291 290 290 289 289 288 288 287
268 268 268 266 264 264 264 264 263 262 260 259 261 265 269 269 266 263 261 261 263 266 268 268 268 267 267 266 267 268 269 270 271 272 274 275 276 276 276 276 276 275 275 275 275 276 277 278 279 279 279 279 280 280 280 280 280 281 282 282 283 283 284 284 285 286 286 288 289 290 291 291 291 291 291 291 290 290 289 289 289 288 288 288 287
259 260 261 260 260 261 263 264 264 263 262 261 263 267 270 270 267 263 262 263 267 272 273 271 269 267 267 267 267 268 269 270 271 273 275 276 276 276 275 274 274 274 274 274 275 277 278 279 280 282 283 285 285 285 285 285 284 283 282 282 283 283 283 284 285 286 287 289 289 290 290 290 290 290 290 290 290 291 291 291 290 290 290 290 289
257 255 254 254 253 254 255 257 258 259 260 262 265 267 269 270 268 266 265 268 272 275 274 272 270 269 268 269 270 271 272 273 274 275 276 275 273 272 272 272 272 273 274 275 277 279 279 280 282 286 288 289 289 288 286 285 284 283 283 283 284 284 285 285 286 288 289 289 289 289 290 290 290 291 292 292 293 294 294 293 293 292 291 290 289
260 257 255 254 254 254 254 254 253 253 256 260 263 265 266 266 266 265 267 270 274 276 276 274 273 272 271 272 274 275 276 276 276 274 271 268 267 269 271 271 271 272 274 277 280 281 282 284 287 289 290 290 288 287 286 285 283 283 283 284 285 286 287 288 289 290 290 291 291 292 293 294 295 296 296 297 297 296 296 294 294 293 293 292 292
260 258 256 255 255 255 255 255 254 253 254 257 259 260 262 263 264 265 268 272 274 275 275 275 275 275 275 275 276 275 275 274 273 270 268 268 269 270 272 272 271 271 274 277 280 282 285 288 290 291 290 288 286 286 285 284 283 284 285 286 288 290 290 291 291 292 294 295 297 298 299 299 300 300 299 298 297 297 295 295 294 294 294 295 295
257 256 253 251 251 252 253 254 254 254 254 255 257 259 261 262 264 267 269 271 272 273 273 273 275 275 276 275 274 272 270 269 268 268 269 270 271 270 271 271 271 271 272 275 279 284 288 291 291 289 288 287 286 286 286 287 289 290 291 292 292 292 293 295 297 298 299 300 301 301 302 302 302 302 301 300 299 298 297 296 295 295 296 296 297
255 253 251 250 249 250 250 250 251 253 254 256 258 260 262 263 266 268 269 270 271 271 272 272 273 273 273 272 270 269 268 267 268 270 271 271 270 269 269 269 269 267 267 271 278 284 286 288 289 288 287 288 290 291 292 292 293 293 293 294 295 297 299 301 301 301 301 302 303 304 305 306 306 306 306 305 304 302 300 297 297 297 298 299 300
255 253 251 250 249 249 249 249 250 251 253 255 257 259 262 264 267 269 271 271 271 271 271 270 270 269 268 267 266 267 268 268 269 270 270 269 267 267 268 269 268 266 266 270 277 279 280 283 286 287 289 291 293 293 293 292 293 294 296 298 300 302 302 301 301 302 303 305 307 308 310 311 312 312 312 310 308 306 304 303 303 303 304 303 302
254 253 251 251 251 252 252 252 252 253 254 255 258 260 262 265 267 268 269 270 270 269 267 266 265 264 264 264 265 267 268 268 268 267 267 264 262 263 267 268 268 268 268 269 271 272 273 277 282 287 291 292 292 291 292 294 297 300 302 303 302 302 301 302 304 307 309 310 312 314 316 318 319 321 320 317 315 313 313 313 312 311 310 308 307
256 255 254 253 254 255 256 257 257 258 259 260 261 263 264 265 265 266 268 269 268 265 262 261 261 261 262 263 265 266 267 266 264 262 261 259 258 259 261 263 266 269 266 262 260 262 267 273 281 287 289 289 290 293 296 299 303 304 304 304 304 303 305 308 311 313 314 315 316 318 320 323 327 330 330 327 324 323 323 321 317 315 315 315 315
258 258 258 257 257 258 260 261 262 263 263 264 264 264 263 263 264 266 268 268 266 264 262 262 261 262 263 264 263 262 261 259 258 257 257 257 255 254 254 258 264 265 258 252 253 257 264 274 281 284 285 289 293 296 300 302 304 305 305 305 307 309 312 316 319 321 321 321 321 320 319 320 323 327 329 328 326 325 325 322 319 317 316 315 314
257 258 259 260 261 262 263 264 265 264 264 264 263 262 260 261 263 266 267 267 266 266 265 264 264 263 263 262 259 256 254 254 253 251 251 251 251 250 252 256 259 254 248 248 252 259 266 273 277 279 285 291 294 297 301 303 304 306 309 312 314 318 322 326 330 331 330 327 323 320 317 316 318 319 321 321 318 316 315 314 312 311 311 310 310
252 255 258 262 265 267 268 268 268 266 264 263 261 259 259 261 264 266 267 267 267 265 264 263 262 260 259 257 254 250 248 245 239 233 235 242 248 250 250 249 245 241 243 249 254 259 263 268 273 280 286 290 293 299 302 304 307 314 318 321 324 327 333 338 340 339 336 330 324 321 320 321 321 321 322 322 319 317 314 313 312 312 312 312 312
252 256 259 264 268 270 271 271 270 268 266 263 261 260 261 263 265 267 267 266 265 263 261 259 256 253 251 247 242 235 230 227 225 225 231 238 242 240 235 230 231 236 243 248 249 251 257 264 273 280 283 287 294 299 302 308 317 324 328 332 334 337 342 346 346 342 339 334 328 324 323 323 325 328 331 332 331 329 326 323 321 320 319 319 318
253 258 263 269 274 275 275 274 272 270 267 265 263 263 263 264 264 264 264 263 260 255 246 238 232 225 215 210 208 202 200 205 211 216 222 225 223 222 221 224 231 236 237 236 234 239 251 263 268 271 276 286 295 300 307 320 329 334 339 344 345 345 346 347 347 345 342 339 335 330 327 325 328 334 338 339 339 337 334 331 328 326 327 327 328
259 267 274 279 282 282 280 276 273 270 267 264 262 262 262 261 257 254 251 245 233 217 200 191 189 178 170 178 189 191 196 201 201 203 211 213 214 219 224 226 228 224 217 213 218 230 245 251 253 257 273 294 303 309 322 335 341 347 353 355 354 351 348 347 348 349 347 344 342 338 334 330 331 335 339 342 344 342 338 335 332 330 330 333 337
274 282 289 293 294 294 292 286 280 274 266 260 254 251 247 240 231 224 217 205 195 187 181 183 183 176 170 175 184 190 198 203 202 204 210 212 213 217 219 214 207 199 191 195 216 229 233 233 231 244 300 313 315 324 340 350 354 359 3 2 359 356 351 347 349 352 351 349 347 344 340 337 334 334 338 345 348 345 341 338 335 332 332 335 338
285 300 321 334 335 330 321 308 290 262 236 221 212 209 207 202 198 196 191 181 173 171 173 173 172 170 169 174 181 189 197 200 199 202 206 206 205 204 198 188 181 179 182 200 214 217 216 213 201 35 352 336 334 343 356 2 4 8 9 5 2 359 354 350 351 354 355 355 353 349 346 344 340 336 337 343 346 346 344 342 338 334 330 330 330
149 92 74 64 60 59 66 80 104 127 135 138 140 142 143 145 147 149 148 146 146 150 157 160 161 161 163 166 172 179 183 183 184 189 191 189 187 183 175 169 172 180 189 198 203 201 197 187 118 37 5 349 352 358 4 8 12 14 12 6 3 2 358 355 355 357 358 359 359 356 351 348 345 342 340 339 341 344 347 347 343 335 325 322 325
127 115 101 90 80 77 81 87 92 98 103 106 109 111 113 115 118 121 124 129 136 144 151 154 156 156 157 158 163 170 173 174 176 177 178 176 174 169 165 167 175 182 186 190 189 183 171 139 68 29 5 359 1 4 7 12 16 17 13 7 4 2 1 360 360 1 2 4 4 1 357 353 350 348 345 341 340 343 347 349 348 340 325 318 323
130 120 118 113 99 88 91 96 96 95 93 91 92 97 102 106 109 114 120 126 133 141 148 154 158 159 158 159 166 172 174 174 173 172 172 170 166 162 164 169 173 177 181 178 170 158 138 88 42 19 8 5 4 4 7 12 14 14 11 7 4 2 2 2 3 4 5 6 6 5 2 358 355 352 350 346 345 345 345 347 350 347 333 320 320
114 52 114 130 124 115 110 107 101 95 89 85 84 88 95 100 103 109 121 130 135 141 146 150 156 161 162 163 168 170 169 168 169 170 169 166 161 161 165 168 169 170 167 157 144 129 102 47 18 13 10 4 2 2 6 9 12 11 7 4 2 2 1 2 4 7 7 7 7 6 4 3 0 358 354 350 349 349 347 345 347 349 344 331 321
55 71 111 130 136 129 114 102 94 92 92 92 90 87 91 101 109 118 130 138 142 146 148 150 155 160 161 160 162 162 161 162 164 165 163 159 159 162 165 165 165 161 149 134 118 91 52 19 8 11 9 1 358 0 3 5 7 8 4 0 359 360 359 1 4 7 8 9 8 6 4 4 4 2 358 354 352 352 351 348 346 348 350 344 331
81 103 107 108 114 115 104 92 91 95 97 101 103 101 101 112 124 129 132 136 142 148 150 150 153 154 153 153 154 155 155 157 158 158 157 159 162 164 162 160 158 150 133 113 81 41 20 5 3 7 6 359 356 358 0 2 2 2 0 359 357 356 356 359 3 6 8 9 8 6 5 5 4 3 2 359 356 355 355 352 349 350 353 349 339
91 105 105 98 99 102 97 91 94 100 101 104 109 109 111 116 121 123 124 129 137 144 147 148 150 150 150 151 151 151 151 152 152 152 156 160 161 159 155 151 146 133 111 65 25 14 4 357 356 358 358 357 355 356 357 359 358 356 356 355 354 354 354 356 360 3 6 7 7 6 6 6 4 3 2 1 359 359 0 358 354 353 355 353 345
94 104 109 106 100 95 87 85 91 101 107 109 110 112 113 111 110 113 120 125 130 136 141 145 148 148 148 148 148 147 147 148 148 149 154 156 155 151 145 137 123 102 68 25 6 359 353 349 349 348 349 351 352 351 353 355 354 352 351 350 350 352 355 356 356 359 3 5 5 5 6 7 6 5 4 2 0 1 5 6 1 357 358 357 352
101 106 115 120 115 102 94 91 89 86 87 87 92 103 111 107 102 108 117 122 125 128 132 136 141 143 144 145 146 147 148 147 145 146 148 150 149 145 136 122 102 70 31 2 351 347 343 340 339 339 341 342 343 344 347 349 349 348 348 347 347 350 354 356 354 354 357 2 3 3 4 6 7 6 5 5 2 1 5 10 9 3 1 2 1
Height
3116 3116 3116 3117 3118 3120 3121 3123 3125 3126 3127 3128 3129 3130 3131 3132 3133 3133 3134 3134 3134 3134 3135 3136 3137 3137 3138 3138 3138 3138 3138 3138 3138 3138 3138 3138 3139 3139 3138 3138 3139 3139 3139 3139 3139 3138 3138 3137 3136 3136 3136 3135 3135 3135 3135 3135 3135 3135 3135 3135 3135 3135 3135 3135 3135 3134 3134 3134 3134 3135 3135 3135 3135 3135 3135 3135 3135 3135 3134 3134 3134 3133 3133 3133 3133
3115 3115 3115 3116 3117 3118 3119 3121 3122 3124 3125 3126 3127 3128 3129 3130 3131 3132 3132 3133 3133 3133 3133 3133 3134 3136 3136 3137 3137 3137 3136 3136 3136 3136 3136 3137 3137 3138 3138 3137 3137 3137 3137 3137 3137 3137 3137 3136 3136 3136 3135 3135 3135 3135 3134 3134 3135 3135 3135 3135 3135 3135 3135 3135 3134 3134 3133 3133 3133 3133 3133 3134 3133 3133 3134 3133 3133 3133 3132 3132 3132 3131 3131 3130 3130
3114 3114 3115 3115 3116 3116 3117 3118 3120 3121 3123 3124 3125 3126 3127 3128 3129 3129 3130 3131 3132 3132 3132 3132 3133 3134 3135 3135 3135 3135 3135 3136 3136 3136 3136 3135 3135 3136 3136 3136 3135 3135 3135 3136 3136 3136 3136 3135 3135 3135 3134 3134 3134 3134 3133 3134 3134 3134 3134 3134 3134 3134 3134 3134 3134 3134 3133 3133 3133 3132 3132 3132 3132 3132 3132 3132 3132 3131 3131 3130 3130 3129 3129 3128 3128
3113 3113 3113 3114 3114 3115 3116 3117 3118 3119 3121 3122 3123 3124 3125 3127 3127 3128 3129 3130 3130 3130 3131 3131 3132 3133 3133 3133 3133 3134 3134 3135 3135 3135 3135 3134 3134 3133 3133 3133 3133 3133 3133 3134 3134 3134 3134 3134 3133 3133 3133 3133 3132 3132 3132 3132 3133 3133 3133 3133 3133 3133 3133 3133 3133 3133 3132 3132 3132 3131 3131 3131 3131 3130 3130 3130 3129 3129 3129 3128 3128 3127 3126 3126 3125
3111 3112 3112 3112 3113 3113 3114 3115 3116 3117 3118 3119 3120 3122 3124 3125 3126 3126 3127 3128 3127 3128 3128 3129 3130 3131 3131 3131 3132 3132 3133 3133 3132 3133 3133 3133 3133 3132 3132 3131 3131 3131 3131 3131 3132 3132 3132 3132 3132 3131 3131 3131 3131 3131 3131 3131 3131 3131 3131 3131 3131 3131 3131 3131 3131 3131 3131 3130 3130 3130 3129 3129 3128 3128 3128 3128 3127 3126 3126 3125 3125 3125 3124 3123 3122
3110 3110 3111 3111 3112 3112 3112 3113 3114 3115 3116 3117 3118 3120 3122 3122 3123 3124 3125 3126 3126 3126 3127 3127 3128 3129 3128 3128 3129 3130 3130 3130 3130 3130 3131 3131 3131 3131 3131 3130 3130 3130 3130 3129 3130 3130 3130 3130 3130 3129 3129 3129 3129 3129 3129 3129 3129 3129 3129 3129 3129 3129 3129 3129 3129 3129 3128 3128 3128 3128 3127 3127 3126 3126 3125 3125 3125 3125 3124 3123 3122 3122 3121 3121 3120
3108 3109 3109 3109 3110 3111 3111 3112 3112 3113 3113 3114 3116 3118 3119 3120 3120 3121 3123 3123 3123 3124 3125 3125 3125 3126 3127 3126 3126 3127 3128 3128 3128 3128 3128 3129 3129 3129 3129 3128 3128 3128 3128 3128 3128 3127 3127 3127 3127 3127 3127 3126 3126 3126 3126 3126 3126 3126 3126 3126 3126 3126 3126 3126 3126 3126 3126 3125 3125 3125 3124 3124 3123 3123 3122 3122 3121 3121 3121 3121 3120 3119 3118 3118 3117
3107 3107 3107 3108 3108 3109 3110 3110 3111 3111 3110 3112 3115 3116 3117 3118 3118 3119 3120 3120 3120 3120 3122 3122 3122 3123 3124 3124 3124 3124 3125 3126 3126 3126 3126 3126 3126 3126 3126 3126 3126 3126 3126 3126 3125 3125 3125 3125 3125 3125 3125 3124 3124 3124 3124 3124 3123 3123 3123 3123 3123 3123 3123 3123 3123 3123 3123 3122 3122 3122 3121 3120 3120 3119 3118 3118 3117 3117 3116 3116 3116 3116 3115 3114 3113
3105 3106 3106 3107 3107 3108 3108 3108 3109 3109 3108 3110 3113 3114 3115 3116 3116 3116 3116 3116 3116 3117 3119 3119 3119 3120 3121 3121 3121 3122 3122 3123 3123 3123 3124 3124 3124 3124 3124 3124 3124 3124 3124 3123 3123 3123 3122 3122 3123 3123 3123 3122 3122 3121 3121 3121 3120 3120 3120 3119 3119 3119 3119 3119 3119 3119 3119 3119 3119 3118 3118 3117 3116 3115 3114 3114 3113 3112 3111 3110 3110 3110 3110 3110 3109
3104 3104 3105 3105 3106 3106 3107 3107 3108 3107 3107 3109 3110 3111 3113 3113 3114 3114 3113 3113 3114 3115 3116 3116 3116 3117 3118 3119 3119 3119 3120 3120 3120 3121 3122 3122 3122 3122 3121 3121 3122 3122 3122 3121 3121 3121 3120 3120 3120 3120 3120 3119 3119 3119 3118 3118 3117 3117 3116 3115 3115 3114 3114 3114 3114 3115 3115 3115 3115 3114 3114 3113 3112 3111 3110 3109 3108 3107 3106 3105 3105 3104 3103 3104 3104
3102 3103 3103 3104 3104 3105 3105 3106 3106 3106 3106 3107 3108 3109 3110 3111 3111 3111 3112 3112 3112 3113 3114 3115 3115 3116 3116 3116 3117 3117 3117 3118 3118 3119 3119 3119 3119 3119 3118 3119 3119 3119 3119 3119 3119 3118 3117 3117 3117 3117 3117 3117 3116 3116 3115 3114 3114 3113 3113 3112 3111 3110 3110 3110 3110 3110 3110 3110 3109 3109 3109 3109 3108 3107 3106 3105 3104 3103 3101 3100 3099 3098 3098 3097 3098
3100 3100 3101 3101 3102 3103 3103 3104 3104 3104 3104 3105 3106 3107 3108 3109 3109 3109 3110 3110 3111 3111 3112 3113 3113 3114 3114 3114 3115 3115 3115 3115 3116 3116 3116 3115 3115 3115 3116 3116 3116 3116 3116 3116 3116 3115 3115 3115 3115 3114 3114 3114 3113 3113 3112 3111 3111 3110 3109 3108 3108 3107 3107 3106 3106 3105 3104 3103 3103 3103 3104 3104 3104 3102 3101 3100 3099 3098 3097 3096 3094 3093 3092 3091 3091
3098 3098 3099 3099 3100 3101 3101 3102 3103 3103 3103 3103 3104 3105 3106 3107 3107 3108 3108 3109 3109 3110 3110 3110 3111 3111 3112 3112 3112 3112 3112 3112 3112 3113 3112 3112 3112 3112 3112 3113 3113 3113 3112 3112 3112 3112 3112 3112 3112 3111 3111 3110 3110 3109 3109 3109 3107 3107 3106 3105 3105 3104 3104 3103 3102 3101 3100 3098 3098 3097 3098 3099 3098 3097 3096 3095 3094 3093 3092 3091 3090 3088 3087 3086 3085
3097 3097 3097 3098 3098 3099 3100 3100 3101 3101 3102 3102 3102 3103 3104 3104 3105 3106 3107 3107 3107 3107 3108 3108 3108 3109 3109 3109 3109 3110 3110 3110 3110 3110 3109 3109 3109 3109 3109 3109 3109 3109 3109 3109 3109 3109 3108 3108 3108 3108 3107 3107 3107 3106 3106 3105 3104 3103 3102 3102 3101 3100 3100 3099 3098 3097 3096 3095 3094 3092 3092 3092 3092 3091 3091 3090 3088 3087 3086 3085 3084 3083 3082 3081 3080
3095 3095 3096 3096 3097 3097 3097 3098 3098 3099 3099 3099 3100 3100 3101 3101 3102 3103 3104 3104 3104 3105 3105 3105 3105 3106 3106 3106 3107 3107 3107 3107 3107 3107 3107 3107 3107 3106 3106 3106 3106 3106 3106 3106 3105 3105 3105 3105 3104 3104 3104 3103 3103 3102 3102 3101 3100 3099 3098 3098 3097 3096 3096 3095 3094 3093 3092 3091 3090 3089 3088 3088 3087 3086 3085 3084 3082 3081 3079 3078 3077 3076 3075 3075 3074
3091 3092 3093 3093 3094 3094 3094 3095 3095 3096 3096 3096 3097 3097 3098 3098 3099 3100 3100 3101 3101 3102 3102 3103 3103 3103 3103 3103 3104 3104 3104 3104 3104 3104 3104 3104 3104 3103 3103 3103 3103 3103 3102 3102 3102 3101 3101 3101 3100 3100 3100 3099 3099 3098 3098 3097 3096 3096 3095 3094 3093 3093 3092 3091 3090 3088 3088 3087 3086 3085 3084 3084 3083 3081 3080 3078 3077 3075 3074 3072 3071 3069 3068 3067 3067
3087 3088 3089 3089 3090 3090 3091 3092 3093 3093 3094 3094 3094 3095 3095 3096 3096 3097 3098 3098 3099 3099 3100 3100 3100 3101 3101 3101 3101 3101 3101 3101 3101 3101 3100 3101 3100 3100 3100 3100 3099 3099 3099 3098 3098 3097 3097 3097 3096 3096 3096 3095 3095 3094 3094 3093 3093 3092 3091 3090 3089 3088 3087 3086 3085 3084 3083 3083 3082 3081 3080 3079 3077 3076 3075 3073 3071 3070 3068 3067 3065 3064 3062 3060 3060
3083 3084 3085 3086 3087 3087 3089 3090 3091 3091 3091 3092 3092 3093 3093 3094 3094 3094 3095 3095 3096 3097 3097 3097 3098 3098 3098 3098 3098 3098 3098 3098 3097 3097 3097 3097 3097 3096 3096 3096 3096 3095 3095 3095 3094 3094 3093 3093 3093 3092 3092 3091 3091 3090 3090 3089 3089 3088 3087 3086 3085 3084 3082 3081 3080 3079 3079 3078 3077 3076 3075 3074 3072 3071 3069 3068 3066 3064 3063 3061 3059 3058 3056 3054 3053
3081 3082 3082 3083 3084 3085 3086 3087 3088 3088 3088 3089 3090 3091 3091 3092 3092 3092 3092 3092 3093 3093 3094 3094 3095 3095 3095 3096 3096 3095 3095 3095 3094 3094 3093 3093 3093 3093 3093 3092 3092 3092 3091 3091 3091 3090 3090 3089 3089 3089 3088 3088 3087 3086 3085 3085 3084 3083 3082 3081 3080 3079 3077 3076 3075 3074 3074 3073 3072 3071 3069 3068 3066 3065 3063 3062 3060 3058 3056 3054 3053 3051 3049 3048 3046
3079 3079 3079 3080 3081 3082 3083 3084 3084 3085 3085 3086 3087 3088 3088 3089 3089 3089 3089 3090 3090 3090 3090 3091 3091 3092 3092 3092 3092 3092 3092 3091 3091 3090 3090 3090 3089 3089 3089 3089 3088 3088 3087 3087 3086 3086 3086 3085 3085 3085 3084 3084 3083 3082 3081 3080 3079 3078 3077 3076 3075 3074 3073 3071 3070 3069 3069 3068 3067 3065 3064 3062 3061 3059 3058 3056 3055 3053 3051 3049 3047 3045 3043 3042 3041
3076 3076 3076 3077 3078 3078 3079 3080 3081 3081 3082 3083 3083 3084 3084 3085 3085 3085 3086 3086 3086 3086 3087 3087 3087 3088 3088 3088 3088 3088 3088 3088 3088 3087 3087 3086 3086 3086 3085 3085 3084 3084 3083 3082 3082 3081 3081 3081 3081 3080 3079 3079 3078 3077 3076 3075 3074 3073 3072 3072 3071 3069 3068 3067 3066 3065 3064 3063 3061 3060 3059 3057 3056 3054 3053 3051 3049 3047 3046 3044 3042 3040 3038 3036 3034
3072 3072 3073 3073 3074 3075 3076 3076 3077 3078 3078 3078 3079 3079 3080 3080 3081 3081 3082 3082 3082 3082 3082 3083 3083 3083 3084 3084 3084 3084 3084 3084 3084 3083 3083 3083 3082 3082 3081 3081 3080 3079 3078 3077 3077 3077 3076 3076 3075 3075 3074 3073 3073 3072 3071 3071 3070 3068 3068 3067 3066 3065 3064 3062 3061 3060 3059 3057 3056 3054 3053 3051 3050 3048 3047 3045 3043 3041 3040 3038 3036 3034 3032 3030 3028
3068 3068 3069 3069 3070 3071 3072 3072 3073 3073 3074 3074 3074 3075 3075 3076 3076 3077 3077 3077 3077 3078 3078 3078 3079 3079 3079 3079 3079 3079 3079 3079 3079 3079 3079 3078 3078 3077 3077 3076 3075 3075 3074 3073 3072 3072 3071 3070 3070 3069 3069 3068 3067 3067 3066 3065 3064 3063 3062 3061 3060 3059 3058 3057 3056 3055 3053 3052 3050 3049 3047 3046 3044 3042 3041 3039 3037 3035 3034 3032 3030 3028 3026 3024 3022
3062 3063 3064 3065 3066 3067 3067 3068 3069 3069 3069 3070 3070 3071 3071 3071 3072 3072 3072 3072 3073 3073 3073 3074 3074 3074 3074 3074 3074 3074 3074 3074 3074 3074 3074 3073 3073 3073 3072 3071 3070 3070 3069 3068 3067 3066 3066 3065 3065 3064 3064 3063 3062 3061 3061 3060 3059 3058 3057 3057 3056 3054 3053 3052 3050 3049 3047 3046 3044 3043 3042 3040 3038 3036 3034 3033 3031 3029 3028 3026 3024 3022 3020 3018 3016
3057 3058 3059 3060 3060 3061 3062 3063 3064 3065 3065 3065 3066 3066 3066 3067 3067 3067 3067 3067 3068 3068 3068 3069 3069 3069 3069 3069 3069 3069 3069 3069 3069 3069 3069 3068 3068 3067 3067 3066 3065 3065 3064 3064 3063 3062 3061 3061 3060 3059 3059 3058 3057 3057 3056 3055 3055 3054 3053 3052 3051 3049 3048 3046 3045 3043 3042 3040 3039 3038 3036 3035 3033 3030 3028 3026 3024 3022 3021 3019 3017 3015 3013 3010 3008
3052 3053 3054 3055 3055 3055 3056 3057 3058 3059 3060 3060 3061 3061 3061 3061 3062 3062 3062 3062 3063 3063 3063 3063 3063 3063 3064 3064 3063 3063 3063 3063 3063 3063 3063 3063 3062 3062 3061 3061 3061 3060 3060 3060 3059 3058 3057 3056 3056 3055 3054 3053 3053 3052 3051 3051 3050 3049 3048 3047 3045 3044 3043 3041 3040 3038 3037 3036 3034 3033 3031 3029 3027 3025 3022 3020 3018 3015 3013 3011 3009 3007 3005 3003 3000
3046 3047 3048 3049 3050 3050 3051 3052 3052 3053 3054 3054 3055 3055 3056 3056 3056 3056 3057 3057 3057 3057 3058 3058 3058 3058 3058 3058 3057 3057 3058 3058 3058 3058 3058 3058 3057 3057 3057 3057 3057 3056 3056 3056 3055 3054 3053 3052 3052 3051 3050 3049 3048 3047 3047 3046 3045 3044 3043 3042 3041 3040 3038 3037 3036 3034 3033 3031 3029 3027 3025 3023 3021 3018 3016 3013 3011 3008 3006 3002 3000 2998 2996 2994 2992
3039 3041 3042 3043 3044 3044 3045 3046 3047 3047 3048 3048 3049 3049 3050 3050 3050 3051 3051 3051 3051 3051 3052 3052 3052 3052 3052 3052 3052 3052 3052 3053 3053 3053 3053 3053 3053 3053 3053 3053 3053 3053 3052 3052 3051 3050 3049 3049 3048 3047 3046 3045 3044 3043 3042 3042 3041 3040 3039 3038 3037 3036 3034 3033 3031 3030 3028 3026 3023 3021 3019 3017 3014 3011 3009 3006 3004 3001 2999 2995 2992 2990 2988 2986 2985
3032 3034 3036 3037 3038 3039 3039 3040 3041 3042 3042 3042 3043 3044 3044 3044 3045 3045 3045 3045 3045 3046 3046 3046 3046 3046 3046 3047 3047 3047 3047 3048 3048 3048 3048 3048 3049 3049 3049 3049 3049 3049 3048 3048 3047 3046 3046 3045 3045 3043 3042 3041 3040 3040 3039 3038 3037 3037 3036 3035 3033 3032 3031 3029 3027 3025 3023 3020 3018 3015 3013 3010 3007 3005 3002 2999 2997 2995 2992 2989 2986 2984 2982 2981 2979
3026 3028 3030 3031 3032 3033 3034 3034 3035 3036 3036 3037 3037 3038 3038 3039 3039 3039 3040 3040 3040 3040 3040 3040 3040 3041 3041 3041 3042 3042 3043 3044 3043 3043 3044 3045 3045 3045 3045 3045 3045 3045 3045 3044 3044 3043 3043 3042 3041 3040 3039 3038 3038 3037 3036 3036 3035 3034 3033 3031 3030 3028 3027 3025 3023 3021 3018 3015 3013 3010 3007 3004 3002 2999 2996 2993 2991 2989 2987 2984 2982 2980 2978 2977 2975
3020 3022 3024 3025 3026 3027 3028 3028 3029 3030 3030 3031 3031 3032 3032 3033 3033 3033 3034 3034 3034 3034 3034 3034 3034 3035 3035 3036 3036 3037 3038 3039 3039 3039 3040 3041 3041 3041 3041 3041 3041 3041 3041 3041 3041 3041 3040 3039 3038 3038 3037 3036 3035 3035 3034 3033 3032 3031 3030 3028 3026 3025 3023 3021 3019 3016 3014 3011 3009 3006 3003 3000 2997 2994 2991 2988 2986 2984 2982 2980 2978 2976 2975 2974 2972
3014 3016 3018 3019 3020 3021 3021 3022 3023 3023 3024 3024 3025 3025 3026 3026 3027 3027 3027 3028 3028 3028 3028 3028 3028 3029 3030 3031 3032 3032 3033 3034 3034 3035 3036 3036 3037 3037 3037 3037 3037 3037 3037 3038 3038 3038 3037 3037 3036 3035 3035 3034 3033 3032 3031 3031 3030 3028 3027 3026 3024 3022 3020 3017 3015 3013 3010 3007 3005 3002 2999 2996 2992 2990 2987 2984 2982 2980 2979 2977 2975 2974 2973 2971 2970
3009 3010 3011 3012 3013 3014 3015 3016 3016 3017 3018 3018 3019 3019 3020 3020 3021 3021 3021 3021 3021 3022 3022 3022 3023 3024 3025 3026 3027 3027 3028 3029 3030 3030 3031 3032 3033 3034 3034 3033 3033 3034 3034 3035 3035 3035 3035 3034 3033 3033 3032 3032 3031 3030 3029 3028 3027 3026 3025 3023 3022 3019 3017 3014 3012 3009 3006 3003 3000 2998 2995 2992 2989 2987 2984 2982 2980 2978 2976 2975 2974 2972 2971 2970 2968
3003 3004 3005 3006 3007 3008 3008 3009 3010 3010 3011 3012 3012 3013 3014 3014 3014 3015 3015 3015 3015 3016 3016 3017 3018 3019 3020 3021 3022 3023 3024 3024 3025 3026 3027 3028 3029 3030 3030 3030 3030 3031 3032 3032 3032 3032 3032 3032 3031 3031 3030 3030 3029 3028 3027 3026 3025 3024 3022 3021 3019 3017 3014 3012 3009 3006 3003 2999 2997 2994 2992 2989 2987 2984 2982 2980 2978 2977 2975 2974 2972 2971 2969 2968 2966
2998 2999 3000 3000 3001 3002 3002 3003 3003 3004 3004 3005 3006 3007 3007 3008 3008 3009 3009 3009 3009 3010 3011 3012 3013 3014 3015 3016 3017 3018 3019 3020 3021 3022 3023 3024 3025 3026 3026 3027 3028 3028 3029 3029 3029 3030 3030 3030 3029 3029 3028 3028 3027 3026 3025 3024 3023 3022 3020 3019 3017 3014 3011 3009 3006 3003 2999 2996 2993 2991 2989 2987 2985 2982 2981 2979 2977 2976 2974 2972 2971 2969 2967 2965 2963
2994 2994 2995 2995 2996 2996 2997 2997 2997 2997 2997 2998 2999 3000 3001 3002 3002 3003 3003 3003 3004 3005 3006 3006 3007 3008 3009 3011 3012 3013 3014 3016 3017 3018 3020 3021 3021 3022 3023 3024 3025 3026 3026 3026 3027 3027 3028 3028 3027 3027 3026 3026 3025 3024 3023 3022 3021 3020 3018 3016 3014 3011 3009 3006 3003 2999 2996 2993 2991 2989 2987 2985 2982 2980 2978 2977 2975 2973 2972 2970 2968 2966 2964 2962 2960
2990 2990 2991 2991 2992 2992 2991 2991 2991 2991 2991 2992 2993 2993 2995 2996 2997 2997 2998 2998 2999 3000 3000 3001 3002 3003 3004 3006 3007 3008 3010 3012 3014 3015 3016 3017 3018 3019 3020 3021 3022 3023 3024 3024 3025 3025 3026 3026 3026 3025 3025 3024 3023 3022 3022 3021 3019 3018 3016 3013 3011 3009 3006 3003 2999 2996 2994 2991 2990 2987 2985 2983 2980 2978 2976 2974 2972 2971 2969 2966 2964 2962 2960 2958 2956
2986 2987 2988 2988 2988 2987 2987 2986 2986 2986 2986 2986 2987 2988 2989 2991 2991 2992 2992 2993 2994 2994 2995 2996 2997 2998 3000 3001 3003 3005 3007 3009 3011 3012 3013 3015 3015 3016 3017 3019 3020 3021 3022 3023 3023 3024 3024 3024 3024 3023 3023 3022 3022 3021 3020 3019 3017 3016 3014 3011 3009 3006 3003 3000 2997 2995 2992 2990 2988 2986 2984 2981 2979 2976 2973 2971 2969 2967 2965 2963 2961 2959 2958 2956 2954
2984 2985 2985 2985 2984 2983 2982 2981 2981 2981 2981 2981 2982 2983 2984 2985 2986 2987 2988 2988 2989 2990 2991 2992 2993 2995 2997 2999 3001 3003 3005 3007 3009 3010 3011 3012 3013 3014 3015 3017 3018 3019 3020 3021 3022 3022 3022 3022 3022 3022 3021 3021 3020 3020 3019 3017 3015 3014 3012 3009 3006 3003 3001 2999 2997 2994 2991 2989 2986 2984 2982 2980 2977 2974 2971 2969 2967 2965 2963 2961 2959 2957 2956 2954 2953
2983 2983 2983 2982 2981 2979 2977 2976 2975 2975 2975 2976 2977 2978 2979 2980 2982 2983 2984 2985 2986 2987 2988 2990 2992 2994 2996 2998 3001 3002 3004 3005 3007 3008 3010 3011 3012 3013 3014 3015 3017 3018 3019 3020 3020 3020 3021 3021 3021 3020 3020 3019 3019 3018 3017 3015 3014 3012 3010 3007 3004 3002 3000 2998 2996 2993 2990 2987 2985 2982 2980 2978 2975 2973 2970 2968 2966 2963 2961 2959 2958 2956 2955 2953 2952
2982 2981 2980 2979 2977 2975 2974 2972 2971 2970 2971 2971 2972 2974 2975 2977 2979 2980 2982 2984 2985 2986 2988 2990 2992 2993 2995 2997 2999 3001 3003 3004 3006 3007 3008 3009 3010 3012 3013 3014 3016 3017 3017 3018 3019 3019 3020 3019 3019 3019 3018 3018 3017 3016 3015 3014 3012 3010 3007 3005 3003 3001 2999 2997 2995 2992 2989 2986 2983 2981 2979 2976 2974 2971 2969 2967 2965 2963 2960 2958 2956 2955 2954 2953 2951
2980 2980 2979 2978 2976 2975 2973 2971 2970 2969 2969 2969 2970 2972 2973 2975 2977 2979 2981 2982 2984 2986 2988 2989 2991 2992 2994 2996 2998 3000 3002 3003 3004 3005 3007 3008 3010 3011 3012 3013 3015 3015 3016 3017 3018 3018 3018 3018 3018 3018 3017 3017 3016 3015 3014 3012 3010 3008 3005 3004 3002 3000 2998 2996 2994 2991 2989 2986 2983 2980 2977 2975 2973 2971 2968 2966 2964 2962 2959 2957 2955 2954 2953 2952 2950
2979 2980 2980 2979 2978 2977 2975 2974 2972 2971 2971 2970 2971 2972 2973 2975 2977 2979 2980 2982 2984 2986 2988 2990 2991 2993 2994 2996 2998 2999 3001 3002 3003 3005 3006 3007 3009 3010 3011 3013 3014 3015 3016 3016 3017 3017 3017 3017 3017 3016 3016 3016 3015 3014 3012 3011 3008 3006 3004 3003 3001 3000 2998 2996 2993 2991 2988 2985 2982 2979 2977 2975 2972 2970 2968 2966 2963 2961 2959 2956 2954 2953 2952 2950 2949
2980 2981 2981 2981 2980 2979 2978 2977 2977 2976 2976 2976 2976 2976 2977 2978 2979 2981 2982 2984 2985 2987 2989 2990 2992 2993 2995 2996 2998 3000 3001 3002 3003 3004 3006 3007 3008 3010 3011 3012 3013 3014 3015 3015 3016 3016 3016 3016 3016 3015 3015 3014 3013 3012 3011 3009 3007 3005 3003 3002 3001 2999 2997 2995 2992 2990 2987 2984 2982 2979 2976 2974 2972 2969 2967 2965 2962 2960 2958 2956 2954 2952 2950 2949 2948
2981 2982 2982 2981 2981 2981 2981 2981 2980 2980 2980 2980 2981 2981 2981 2981 2982 2983 2985 2986 2987 2988 2990 2991 2993 2994 2995 2997 2998 3000 3001 3002 3003 3004 3005 3007 3008 3009 3011 3012 3013 3013 3014 3014 3015 3015 3015 3015 3015 3014 3014 3013 3012 3011 3009 3007 3005 3003 3002 3001 3000 2998 2996 2994 2992 2989 2986 2983 2981 2978 2976 2973 2971 2969 2966 2964 2961 2959 2957 2955 2953 2951 2949 2948 2947
2982 2982 2982 2982 2982 2983 2983 2983 2983 2983 2983 2983 2984 2984 2984 2985 2985 2986 2987 2987 2988 2989 2991 2992 2993 2995 2996 2997 2999 3000 3001 3002 3003 3004 3005 3007 3008 3009 3010 3011 3012 3013 3013 3013 3014 3014 3014 3014 3014 3013 3012 3011 3010 3009 3008 3006 3004 3002 3001 3000 2999 2997 2995 2993 2991 2988 2985 2982 2980 2978 2975 2973 2970 2968 2966 2963 2961 2958 2956 2954 2952 2950 2949 2947 2946
2983 2983 2983 2983 2984 2984 2985 2985 2985 2985 2985 2986 2986 2986 2987 2987 2987 2988 2988 2989 2990 2991 2992 2993 2994 2995 2996 2998 2999 3000 3001 3002 3003 3004 3005 3007 3008 3009 3010 3011 3012 3012 3012 3013 3013 3013 3013 3013 3012 3012 3011 3010 3009 3008 3007 3005 3003 3002 3000 2999 2998 2996 2995 2992 2990 2987 2984 2982 2979 2977 2975 2972 2970 2968 2965 2963 2960 2958 2956 2954 2951 2950 2948 2946 2945
2985 2985 2985 2985 2985 2986 2986 2987 2987 2987 2987 2988 2988 2988 2989 2989 2989 2989 2990 2990 2991 2992 2993 2994 2995 2996 2997 2997 2998 2999 3000 3002 3003 3004 3006 3007 3008 3009 3010 3010 3011 3011 3012 3012 3012 3012 3012 3012 3011 3011 3010 3009 3008 3007 3006 3004 3002 3001 3000 2998 2997 2995 2994 2992 2989 2987 2984 2981 2979 2977 2975 2972 2970 2967 2965 2963 2960 2958 2955 2953 2951 2949 2947 2946 2945
2986 2986 2987 2987 2987 2988 2988 2989 2989 2989 2989 2989 2989 2989 2990 2990 2990 2991 2991 2992 2993 2993 2994 2995 2995 2996 2997 2998 2999 3000 3001 3002 3003 3005 3006 3007 3008 3009 3009 3010 3011 3011 3011 3011 3011 3011 3011 3011 3010 3010 3009 3008 3007 3006 3005 3004 3002 3001 3000 2998 2996 2995 2993 2991 2989 2986 2984 2981 2979 2977 2975 2973 2970 2968 2965 2963 2960 2958 2955 2953 2951 2949 2947 2946 2944
2988 2988 2988 2989 2989 2990 2990 2990 2990 2990 2990 2990 2990 2991 2991 2991 2991 2991 2992 2993 2994 2994 2995 2995 2996 2996 2997 2998 2999 3000 3001 3002 3004 3005 3006 3007 3008 3008 3009 3010 3010 3010 3010 3010 3010 3010 3010 3009 3009 3009 3008 3007 3006 3005 3004 3003 3002 3001 2999 2998 2996 2995 2993 2990 2988 2986 2984 2982 2980 2978 2975 2973 2971 2968 2966 2963 2961 2958 2956 2953 2951 2949 2947 2946 2944
2989 2990 2990 2990 2990 2991 2991 2991 2991 2992 2992 2992 2992 2992 2992 2992 2992 2992 2993 2994 2994 2995 2995 2996 2996 2997 2998 2999 3000 3001 3002 3003 3004 3005 3006 3007 3007 3008 3009 3009 3009 3009 3009 3009 3009 3009 3009 3008 3008 3007 3007 3006 3005 3004 3003 3002 3001 3000 2999 2997 2996 2994 2992 2990 2988 2986 2984 2982 2980 2978 2975 2973 2971 2969 2966 2964 2961 2959 2956 2954 2951 2949 2947 2946 2944